Time,TemperatureF,DewpointF,PressureIn,WindDirection,WindDirectionDegrees,WindSpeedMPH,WindSpeedGustMPH,Humidity,HourlyPrecipIn,Conditions,Clouds,dailyrainin,SoftwareType,DateUTC
2015-09-01 00:01:00,78.0,71.7,30.05,NNE,19,0.0,0.0,81,0.00,,---,0.00,VWS V13.01,2015-09-01 05:01:00,
2015-09-01 00:06:00,77.8,71.9,30.05,NNE,19,0.0,0.0,82,0.00,,---,0.00,VWS V13.01,2015-09-01 05:06:00,
2015-09-01 00:11:00,77.7,71.8,30.05,NNE,19,0.0,0.0,82,0.00,,---,0.00,VWS V13.01,2015-09-01 05:11:00,
2015-09-01 00:16:00,77.6,71.7,30.05,NNE,19,0.0,0.0,82,0.00,,---,0.00,VWS V13.01,2015-09-01 05:16:00,
2015-09-01 00:21:00,77.6,71.7,30.05,NNE,19,0.0,0.0,82,0.00,,---,0.00,VWS V13.01,2015-09-01 05:21:00,
2015-09-01 00:26:00,77.5,71.6,30.05,NNE,19,0.0,0.0,82,0.00,,---,0.00,VWS V13.01,2015-09-01 05:26:00,
2015-09-01 00:31:00,77.3,71.4,30.05,NNE,19,0.0,0.0,82,0.00,,---,0.00,VWS V13.01,2015-09-01 05:31:00,
2015-09-01 00:36:00,77.2,71.3,30.05,NNE,19,0.0,0.0,82,0.00,,---,0.00,VWS V13.01,2015-09-01 05:36:00,
2015-09-01 00:41:00,77.1,71.5,30.05,NNE,19,0.0,0.0,83,0.00,,---,0.00,VWS V13.01,2015-09-01 05:41:00,
2015-09-01 00:46:00,77.0,71.4,30.05,NNE,19,0.0,0.0,83,0.00,,---,0.00,VWS V13.01,2015-09-01 05:46:00,
2015-09-01 00:51:00,76.9,71.3,30.05,NNE,19,0.0,0.0,83,0.00,,---,0.00,VWS V13.01,2015-09-01 05:51:00,
2015-09-01 00:56:00,76.7,71.2,30.05,NNE,19,0.0,0.0,83,0.00,,---,0.00,VWS V13.01,2015-09-01 05:56:00,
2015-09-01 01:00:00,76.6,71.4,30.05,NNE,19,0.0,0.0,84,0.00,,---,0.00,VWS V13.01,2015-09-01 06:00:00,
2015-09-01 01:05:00,76.5,71.3,30.05,NNE,19,0.0,0.0,84,0.00,,---,0.00,VWS V13.01,2015-09-01 06:05:00,
2015-09-01 01:10:00,76.4,71.2,30.05,NNE,19,0.0,0.0,84,0.00,,---,0.00,VWS V13.01,2015-09-01 06:10:00,
2015-09-01 01:15:00,76.3,71.1,30.05,NNE,19,0.0,0.0,84,0.00,,---,0.00,VWS V13.01,2015-09-01 06:15:00,
2015-09-01 01:20:00,76.2,71.0,30.05,NNE,19,0.0,0.0,84,0.00,,---,0.00,VWS V13.01,2015-09-01 06:20:00,
2015-09-01 01:25:00,76.1,70.9,30.05,NNE,19,0.0,0.0,84,0.00,,---,0.00,VWS V13.01,2015-09-01 06:25:00,
2015-09-01 01:30:00,76.0,70.8,30.05,NNE,19,0.0,0.0,84,0.00,,---,0.00,VWS V13.01,2015-09-01 06:30:00,
2015-09-01 01:35:00,76.0,70.8,30.04,NNE,19,0.0,0.0,84,0.00,,---,0.00,VWS V13.01,2015-09-01 06:35:00,
2015-09-01 01:40:00,75.8,70.6,30.04,NNE,19,0.0,0.0,84,0.00,,---,0.00,VWS V13.01,2015-09-01 06:40:00,
2015-09-01 01:45:00,75.7,70.5,30.04,NNE,19,0.0,0.0,84,0.00,,---,0.00,VWS V13.01,2015-09-01 06:45:00,
2015-09-01 01:55:00,75.5,70.3,30.04,NNE,19,0.0,0.0,84,0.00,,---,0.00,VWS V13.01,2015-09-01 06:55:00,
2015-09-01 02:00:00,75.4,70.2,30.04,NNE,19,0.0,0.0,84,0.00,,---,0.00,VWS V13.01,2015-09-01 07:00:00,
2015-09-01 02:05:00,75.3,70.1,30.04,NNE,19,0.0,0.0,84,0.00,,---,0.00,VWS V13.01,2015-09-01 07:05:00,
2015-09-01 02:10:00,75.3,70.1,30.03,NNE,19,0.0,0.0,84,0.00,,---,0.00,VWS V13.01,2015-09-01 07:10:00,
2015-09-01 02:20:00,75.1,70.3,30.04,NNE,19,0.0,0.0,85,0.00,,---,0.00,VWS V13.01,2015-09-01 07:20:00,
2015-09-01 02:25:00,75.0,70.2,30.04,NNE,19,0.0,0.0,85,0.00,,---,0.00,VWS V13.01,2015-09-01 07:25:00,
2015-09-01 02:30:00,74.9,70.1,30.04,NNE,19,0.0,0.0,85,0.00,,---,0.00,VWS V13.01,2015-09-01 07:30:00,
2015-09-01 02:40:00,74.7,69.9,30.03,NNE,19,0.0,0.0,85,0.00,,---,0.00,VWS V13.01,2015-09-01 07:40:00,
2015-09-01 02:45:00,74.6,69.8,30.04,NNE,19,0.0,0.0,85,0.00,,---,0.00,VWS V13.01,2015-09-01 07:45:00,
2015-09-01 02:50:00,74.6,69.8,30.03,NNE,19,0.0,0.0,85,0.00,,---,0.00,VWS V13.01,2015-09-01 07:50:00,
2015-09-01 02:55:00,74.4,69.6,30.04,NNE,19,0.0,0.0,85,0.00,,---,0.00,VWS V13.01,2015-09-01 07:55:00,
2015-09-01 03:00:00,74.3,69.5,30.03,NNE,19,0.0,0.0,85,0.00,,---,0.00,VWS V13.01,2015-09-01 08:00:00,
2015-09-01 03:05:00,74.2,69.4,30.03,NNE,19,0.0,0.0,85,0.00,,---,0.00,VWS V13.01,2015-09-01 08:05:00,
2015-09-01 03:10:00,74.2,69.4,30.03,NNE,19,0.0,0.0,85,0.00,,---,0.00,VWS V13.01,2015-09-01 08:10:00,
2015-09-01 03:15:00,74.2,69.4,30.03,NNE,19,0.0,0.0,85,0.00,,---,0.00,VWS V13.01,2015-09-01 08:15:00,
2015-09-01 03:20:00,74.0,69.6,30.03,NNE,19,0.0,0.0,86,0.00,,---,0.00,VWS V13.01,2015-09-01 08:20:00,
2015-09-01 03:25:00,74.0,69.6,30.03,NNE,19,0.0,0.0,86,0.00,,---,0.00,VWS V13.01,2015-09-01 08:25:00,
2015-09-01 03:30:00,73.9,69.4,30.03,NNE,19,0.0,0.0,86,0.00,,---,0.00,VWS V13.01,2015-09-01 08:30:00,
2015-09-01 03:35:00,73.8,69.3,30.04,NNE,19,0.0,0.0,86,0.00,,---,0.00,VWS V13.01,2015-09-01 08:35:00,
2015-09-01 03:40:00,73.8,69.3,30.03,NNE,19,0.0,0.0,86,0.00,,---,0.00,VWS V13.01,2015-09-01 08:40:00,
2015-09-01 03:45:00,73.7,69.3,30.04,NNE,19,0.0,0.0,86,0.00,,---,0.00,VWS V13.01,2015-09-01 08:45:00,
2015-09-01 03:50:00,73.6,69.2,30.04,NNE,19,0.0,0.0,86,0.00,,---,0.00,VWS V13.01,2015-09-01 08:50:00,
2015-09-01 03:55:00,73.5,69.1,30.04,NNE,19,0.0,0.0,86,0.00,,---,0.00,VWS V13.01,2015-09-01 08:55:00,
2015-09-01 04:00:00,73.5,69.1,30.04,NNE,19,0.0,0.0,86,0.00,,---,0.00,VWS V13.01,2015-09-01 09:00:00,
2015-09-01 04:05:00,73.4,69.0,30.04,NNE,19,0.0,0.0,86,0.00,,---,0.00,VWS V13.01,2015-09-01 09:05:00,
2015-09-01 04:10:00,73.3,68.9,30.04,NNE,19,0.0,0.0,86,0.00,,---,0.00,VWS V13.01,2015-09-01 09:10:00,
2015-09-01 04:15:00,73.2,68.8,30.04,NNE,19,0.0,0.0,86,0.00,,---,0.00,VWS V13.01,2015-09-01 09:15:00,
2015-09-01 04:20:00,73.1,68.7,30.04,NNE,19,0.0,0.0,86,0.00,,---,0.00,VWS V13.01,2015-09-01 09:20:00,
2015-09-01 04:25:00,73.0,68.6,30.04,NNE,19,0.0,0.0,86,0.00,,---,0.00,VWS V13.01,2015-09-01 09:25:00,
2015-09-01 04:30:00,72.9,68.5,30.04,NNE,19,0.0,0.0,86,0.00,,---,0.00,VWS V13.01,2015-09-01 09:30:00,
2015-09-01 04:35:00,72.8,68.4,30.05,NNE,19,0.0,0.0,86,0.00,,---,0.00,VWS V13.01,2015-09-01 09:35:00,
2015-09-01 04:40:00,72.8,68.7,30.05,NNE,19,0.0,0.0,87,0.00,,---,0.00,VWS V13.01,2015-09-01 09:40:00,
2015-09-01 04:45:00,72.6,68.5,30.05,NNE,19,0.0,0.0,87,0.00,,---,0.00,VWS V13.01,2015-09-01 09:45:00,
2015-09-01 04:50:00,72.6,68.5,30.05,NNE,19,0.0,1.0,87,0.00,,---,0.00,VWS V13.01,2015-09-01 09:50:00,
2015-09-01 04:55:00,72.5,68.4,30.05,NNE,19,0.0,0.0,87,0.00,,---,0.00,VWS V13.01,2015-09-01 09:55:00,
2015-09-01 05:00:00,72.5,68.4,30.06,NNE,19,0.0,0.0,87,0.00,,---,0.00,VWS V13.01,2015-09-01 10:00:00,
2015-09-01 05:05:00,72.4,68.3,30.06,NNE,19,0.0,0.0,87,0.00,,---,0.00,VWS V13.01,2015-09-01 10:05:00,
2015-09-01 05:10:00,72.3,68.2,30.06,NNE,19,0.0,0.0,87,0.00,,---,0.00,VWS V13.01,2015-09-01 10:10:00,
2015-09-01 05:15:00,72.2,68.1,30.06,NNE,19,0.0,0.0,87,0.00,,---,0.00,VWS V13.01,2015-09-01 10:15:00,
2015-09-01 05:20:00,72.2,68.1,30.06,NNE,19,0.0,0.0,87,0.00,,---,0.00,VWS V13.01,2015-09-01 10:20:00,
2015-09-01 05:25:00,72.1,68.0,30.06,NNE,19,0.0,0.0,87,0.00,,---,0.00,VWS V13.01,2015-09-01 10:25:00,
2015-09-01 05:30:00,72.0,67.9,30.06,NNE,19,0.0,0.0,87,0.00,,---,0.00,VWS V13.01,2015-09-01 10:30:00,
2015-09-01 05:34:00,71.9,67.8,30.06,NNE,19,0.0,0.0,87,0.00,,---,0.00,VWS V13.01,2015-09-01 10:34:00,
2015-09-01 05:39:00,71.9,67.8,30.06,NNE,19,0.0,0.0,87,0.00,,---,0.00,VWS V13.01,2015-09-01 10:39:00,
2015-09-01 05:44:00,71.8,67.7,30.06,NNE,19,0.0,0.0,87,0.00,,---,0.00,VWS V13.01,2015-09-01 10:44:00,
2015-09-01 05:49:00,71.7,67.6,30.07,NNE,19,0.0,0.0,87,0.00,,---,0.00,VWS V13.01,2015-09-01 10:49:00,
2015-09-01 05:54:00,71.6,67.5,30.07,NNE,19,0.0,0.0,87,0.00,,---,0.00,VWS V13.01,2015-09-01 10:54:00,
2015-09-01 05:59:00,71.6,67.5,30.07,NNE,19,0.0,0.0,87,0.00,,---,0.00,VWS V13.01,2015-09-01 10:59:00,
2015-09-01 06:04:00,71.5,67.4,30.07,NNE,19,0.0,0.0,87,0.00,,---,0.00,VWS V13.01,2015-09-01 11:04:00,
2015-09-01 06:09:00,71.4,67.3,30.07,NNE,19,0.0,0.0,87,0.00,,---,0.00,VWS V13.01,2015-09-01 11:09:00,
2015-09-01 06:14:00,71.4,67.3,30.07,NNE,19,0.0,0.0,87,0.00,,---,0.00,VWS V13.01,2015-09-01 11:14:00,
2015-09-01 06:19:00,71.3,67.2,30.07,NNE,19,0.0,0.0,87,0.00,,---,0.00,VWS V13.01,2015-09-01 11:19:00,
2015-09-01 06:24:00,71.3,67.2,30.07,NNE,19,0.0,0.0,87,0.00,,---,0.00,VWS V13.01,2015-09-01 11:24:00,
2015-09-01 06:29:00,71.2,67.1,30.07,NNE,19,0.0,0.0,87,0.00,,---,0.00,VWS V13.01,2015-09-01 11:29:00,
2015-09-01 06:34:00,71.3,67.2,30.07,NNE,19,0.0,0.0,87,0.00,,---,0.00,VWS V13.01,2015-09-01 11:34:00,
2015-09-01 06:39:00,71.2,67.1,30.07,NNE,19,0.0,0.0,87,0.00,,---,0.00,VWS V13.01,2015-09-01 11:39:00,
2015-09-01 06:44:00,71.2,67.1,30.07,NNE,19,0.0,0.0,87,0.00,,---,0.00,VWS V13.01,2015-09-01 11:44:00,
2015-09-01 06:49:00,71.3,67.6,30.07,NNE,19,0.0,0.0,88,0.00,,---,0.00,VWS V13.01,2015-09-01 11:49:00,
2015-09-01 06:54:00,71.4,67.3,30.07,NNE,19,0.0,0.0,87,0.00,,---,0.00,VWS V13.01,2015-09-01 11:54:00,
2015-09-01 06:59:00,71.5,67.8,30.07,NNE,19,0.0,1.0,88,0.00,,---,0.00,VWS V13.01,2015-09-01 11:59:00,
2015-09-01 07:04:00,71.7,68.0,30.08,NNE,19,0.0,2.0,88,0.00,,---,0.00,VWS V13.01,2015-09-01 12:04:00,
2015-09-01 07:09:00,71.7,68.0,30.08,NNE,19,0.0,2.0,88,0.00,,---,0.00,VWS V13.01,2015-09-01 12:09:00,
2015-09-01 07:14:00,71.9,68.2,30.08,NNE,19,0.0,0.0,88,0.00,,---,0.00,VWS V13.01,2015-09-01 12:14:00,
2015-09-01 07:19:00,72.0,68.3,30.08,NNE,19,0.0,0.0,88,0.00,,---,0.00,VWS V13.01,2015-09-01 12:19:00,
2015-09-01 07:24:00,72.3,68.6,30.07,NNE,19,0.0,2.0,88,0.00,,---,0.00,VWS V13.01,2015-09-01 12:24:00,
2015-09-01 07:29:00,72.5,68.8,30.07,NNE,19,0.0,2.0,88,0.00,,---,0.00,VWS V13.01,2015-09-01 12:29:00,
2015-09-01 07:34:00,72.7,68.9,30.07,NNE,19,0.0,1.0,88,0.00,,---,0.00,VWS V13.01,2015-09-01 12:34:00,
2015-09-01 07:39:00,73.0,69.2,30.07,NNE,19,0.0,1.0,88,0.00,,---,0.00,VWS V13.01,2015-09-01 12:39:00,
2015-09-01 07:44:00,73.2,69.4,30.07,NNE,19,0.0,0.0,88,0.00,,---,0.00,VWS V13.01,2015-09-01 12:44:00,
2015-09-01 07:49:00,73.5,69.7,30.08,NNE,19,0.0,1.0,88,0.00,,---,0.00,VWS V13.01,2015-09-01 12:49:00,
2015-09-01 07:54:00,73.9,70.1,30.07,NNE,19,0.0,0.0,88,0.00,,---,0.00,VWS V13.01,2015-09-01 12:54:00,
2015-09-01 07:59:00,74.2,70.4,30.07,NNE,19,0.0,0.0,88,0.00,,---,0.00,VWS V13.01,2015-09-01 12:59:00,
2015-09-01 08:04:00,74.6,70.8,30.07,NNE,19,2.0,2.0,88,0.00,,---,0.00,VWS V13.01,2015-09-01 13:04:00,
2015-09-01 08:09:00,75.1,71.3,30.07,NNE,19,0.0,3.0,88,0.00,,---,0.00,VWS V13.01,2015-09-01 13:09:00,
2015-09-01 08:14:00,75.6,71.8,30.08,NNE,19,1.0,2.0,88,0.00,,---,0.00,VWS V13.01,2015-09-01 13:14:00,
2015-09-01 08:19:00,76.2,72.1,30.08,West,269,0.0,3.0,87,0.00,,---,0.00,VWS V13.01,2015-09-01 13:19:00,
2015-09-01 08:24:00,76.9,72.4,30.07,North,11,0.0,4.0,86,0.00,,---,0.00,VWS V13.01,2015-09-01 13:24:00,
2015-09-01 08:29:00,77.6,72.7,30.07,North,11,0.0,4.0,85,0.00,,---,0.00,VWS V13.01,2015-09-01 13:29:00,
2015-09-01 08:34:00,78.3,73.1,30.07,NNE,26,0.0,5.0,84,0.00,,---,0.00,VWS V13.01,2015-09-01 13:34:00,
2015-09-01 08:39:00,79.1,73.5,30.07,North,9,0.0,9.0,83,0.00,,---,0.00,VWS V13.01,2015-09-01 13:39:00,
2015-09-01 08:44:00,79.6,73.3,30.07,North,5,0.0,2.0,81,0.00,,---,0.00,VWS V13.01,2015-09-01 13:44:00,
2015-09-01 08:49:00,80.0,73.3,30.07,North,5,0.0,2.0,80,0.00,,---,0.00,VWS V13.01,2015-09-01 13:49:00,
2015-09-01 08:54:00,80.5,73.4,30.07,North,9,0.0,1.0,79,0.00,,---,0.00,VWS V13.01,2015-09-01 13:54:00,
2015-09-01 08:59:00,81.0,73.9,30.07,North,9,0.0,1.0,79,0.00,,---,0.00,VWS V13.01,2015-09-01 13:59:00,
2015-09-01 09:04:00,81.3,73.8,30.08,North,5,0.0,3.0,78,0.00,,---,0.00,VWS V13.01,2015-09-01 14:04:00,
2015-09-01 09:09:00,81.8,73.9,30.07,North,5,0.0,3.0,77,0.00,,---,0.00,VWS V13.01,2015-09-01 14:09:00,
2015-09-01 09:14:00,82.0,73.3,30.07,NW,316,0.0,2.0,75,0.00,,---,0.00,VWS V13.01,2015-09-01 14:14:00,
2015-09-01 09:19:00,82.2,73.1,30.07,NW,316,0.0,2.0,74,0.00,,---,0.00,VWS V13.01,2015-09-01 14:19:00,
2015-09-01 09:24:00,82.4,72.9,30.08,NW,316,0.0,1.0,73,0.00,,---,0.00,VWS V13.01,2015-09-01 14:24:00,
2015-09-01 09:29:00,82.6,73.1,30.08,NE,42,0.0,4.0,73,0.00,,---,0.00,VWS V13.01,2015-09-01 14:29:00,
2015-09-01 09:34:00,82.9,73.4,30.08,NE,42,0.0,3.0,73,0.00,,---,0.00,VWS V13.01,2015-09-01 14:34:00,
2015-09-01 09:39:00,83.4,73.8,30.08,NE,42,0.0,3.0,73,0.00,,---,0.00,VWS V13.01,2015-09-01 14:39:00,
2015-09-01 09:44:00,83.8,73.8,30.08,North,360,2.0,3.0,72,0.00,,---,0.00,VWS V13.01,2015-09-01 14:44:00,
2015-09-01 09:49:00,84.2,73.8,30.08,NNE,23,0.0,5.0,71,0.00,,---,0.00,VWS V13.01,2015-09-01 14:49:00,
2015-09-01 09:54:00,84.5,73.2,30.08,NNE,23,0.0,1.0,69,0.00,,---,0.00,VWS V13.01,2015-09-01 14:54:00,
2015-09-01 09:59:00,84.7,72.5,30.08,NNE,23,0.0,1.0,67,0.00,,---,0.00,VWS V13.01,2015-09-01 14:59:00,
2015-09-01 10:04:00,85.0,73.3,30.08,NNE,23,0.0,4.0,68,0.00,,---,0.00,VWS V13.01,2015-09-01 15:04:00,
2015-09-01 10:09:00,85.3,73.6,30.08,NNE,23,0.0,4.0,68,0.00,,---,0.00,VWS V13.01,2015-09-01 15:09:00,
2015-09-01 10:14:00,85.5,73.3,30.08,NNE,22,0.0,5.0,67,0.00,,---,0.00,VWS V13.01,2015-09-01 15:14:00,
2015-09-01 10:19:00,85.7,73.5,30.09,NNE,22,0.0,5.0,67,0.00,,---,0.00,VWS V13.01,2015-09-01 15:19:00,
2015-09-01 10:24:00,85.8,73.6,30.08,NNE,22,5.0,6.0,67,0.00,,---,0.00,VWS V13.01,2015-09-01 15:24:00,
2015-09-01 10:29:00,86.1,73.9,30.08,NNE,22,0.0,6.0,67,0.00,,---,0.00,VWS V13.01,2015-09-01 15:29:00,
2015-09-01 10:34:00,86.1,73.4,30.08,NNE,22,0.0,0.0,66,0.00,,---,0.00,VWS V13.01,2015-09-01 15:34:00,
2015-09-01 10:39:00,86.3,74.5,30.09,NNE,22,0.0,4.0,68,0.00,,---,0.00,VWS V13.01,2015-09-01 15:39:00,
2015-09-01 10:44:00,86.5,74.2,30.08,NNE,22,0.0,1.0,67,0.00,,---,0.00,VWS V13.01,2015-09-01 15:44:00,
2015-09-01 10:49:00,86.6,73.4,30.09,NNE,22,0.0,5.0,65,0.00,,---,0.00,VWS V13.01,2015-09-01 15:49:00,
2015-09-01 10:54:00,86.7,73.5,30.08,NNE,21,1.0,6.0,65,0.00,,---,0.00,VWS V13.01,2015-09-01 15:54:00,
2015-09-01 10:59:00,86.8,73.6,30.08,NNE,19,1.0,6.0,65,0.00,,---,0.00,VWS V13.01,2015-09-01 15:59:00,
2015-09-01 11:04:00,86.8,73.2,30.08,NNE,20,0.0,5.0,64,0.00,,---,0.00,VWS V13.01,2015-09-01 16:04:00,
2015-09-01 11:09:00,87.0,73.8,30.08,NNE,20,0.0,5.0,65,0.00,,---,0.00,VWS V13.01,2015-09-01 16:09:00,
2015-09-01 11:14:00,87.1,73.4,30.08,NNE,19,0.0,2.0,64,0.00,,---,0.00,VWS V13.01,2015-09-01 16:14:00,
2015-09-01 11:19:00,87.0,73.4,30.08,NNE,19,0.0,2.0,64,0.00,,---,0.00,VWS V13.01,2015-09-01 16:19:00,
2015-09-01 11:24:00,87.2,74.0,30.08,NNE,19,0.0,2.0,65,0.00,,---,0.00,VWS V13.01,2015-09-01 16:24:00,
2015-09-01 11:29:00,87.4,73.7,30.08,NNE,19,0.0,2.0,64,0.00,,---,0.00,VWS V13.01,2015-09-01 16:29:00,
2015-09-01 11:34:00,87.7,74.0,30.08,NNE,19,0.0,4.0,64,0.00,,---,0.00,VWS V13.01,2015-09-01 16:34:00,
2015-09-01 11:39:00,88.3,74.6,30.08,NE,55,0.0,4.0,64,0.00,,---,0.00,VWS V13.01,2015-09-01 16:39:00,
2015-09-01 11:44:00,89.0,75.2,30.08,NE,38,4.0,6.0,64,0.00,,---,0.00,VWS V13.01,2015-09-01 16:44:00,
2015-09-01 11:49:00,89.5,74.3,30.07,ENE,59,3.0,9.0,61,0.00,,---,0.00,VWS V13.01,2015-09-01 16:49:00,
2015-09-01 11:54:00,89.9,74.7,30.07,NE,43,0.0,7.0,61,0.00,,---,0.00,VWS V13.01,2015-09-01 16:54:00,
2015-09-01 11:59:00,90.1,74.3,30.07,NNE,19,0.0,7.0,60,0.00,,---,0.00,VWS V13.01,2015-09-01 16:59:00,
2015-09-01 12:04:00,90.4,75.1,30.07,NNE,19,0.0,1.0,61,0.00,,---,0.00,VWS V13.01,2015-09-01 17:04:00,
2015-09-01 12:09:00,90.9,75.1,30.06,NNE,32,4.0,5.0,60,0.00,,---,0.00,VWS V13.01,2015-09-01 17:09:00,
2015-09-01 12:14:00,91.3,75.0,30.06,ESE,106,2.0,6.0,59,0.00,,---,0.00,VWS V13.01,2015-09-01 17:14:00,
2015-09-01 12:19:00,91.7,74.3,30.07,NNE,33,0.0,6.0,57,0.00,,---,0.00,VWS V13.01,2015-09-01 17:19:00,
2015-09-01 12:21:00,91.7,74.3,30.07,NNE,33,0.0,0.0,57,0.00,,---,0.00,VWS V13.01,2015-09-01 17:21:00,
2015-09-01 12:22:00,91.7,74.3,30.07,NNE,33,0.0,1.0,57,0.00,,---,0.00,VWS V13.01,2015-09-01 17:22:00,
2015-09-01 12:23:00,91.8,74.4,30.07,NNE,33,0.0,1.0,57,0.00,,---,0.00,VWS V13.01,2015-09-01 17:23:00,
2015-09-01 12:28:00,92.1,76.2,30.07,NNE,32,0.0,4.0,60,0.00,,---,0.00,VWS V13.01,2015-09-01 17:28:00,
2015-09-01 12:33:00,92.6,75.2,30.06,East,90,0.0,5.0,57,0.00,,---,0.00,VWS V13.01,2015-09-01 17:33:00,
2015-09-01 12:38:00,92.9,73.8,30.06,North,9,9.0,10.0,54,0.00,,---,0.00,VWS V13.01,2015-09-01 17:38:00,